GW5009 Weather Reports


Display with metric or nautical units.
time (UTC)temp
F
wind
direction
speed
MPH
gust
MPH
rain 1hr
in
rain 24hr
in
rain mn
in
humidity
%
barometer
mb
20260510120005 58 142 0.0 0.0 0.00 0.00 0.00 92 1014.9
20260510114519 58 142 0.0 0.0 0.00 0.00 0.00 92 1014.9
20260510113036 58 142 0.0 0.0 0.00 0.00 0.00 92 1014.9
20260510111552 58 142 0.0 0.0 0.00 0.00 0.00 92 1014.6
20260510110034 58 142 0.0 0.0 0.00 0.00 0.00 92 1014.5
20260510104551 58 142 0.0 0.0 0.00 0.00 0.00 92 1014.1
20260510103055 58 142 0.0 1.0 0.00 0.00 0.00 92 1013.8
20260510101518 58 142 0.0 0.0 0.00 0.00 0.00 92 1013.6
20260510100100 58 142 0.0 1.0 0.00 0.00 0.00 91 1013.4
20260510100001 58 142 0.0 1.0 0.00 0.00 0.00 91 1013.5
20260510094516 58 142 0.0 0.0 0.00 0.00 0.00 91 1013.4
20260510093026 58 142 0.0 0.0 0.00 0.00 0.00 90 1013.1
20260510091552 58 142 0.0 0.0 0.00 0.00 0.00 90 1012.9
20260510090053 58 142 0.0 0.0 0.00 0.00 0.00 89 1012.7
20260510084516 58 142 0.0 0.0 0.00 0.00 0.00 88 1012.7
20260510083054 58 142 0.0 0.0 0.00 0.00 0.00 88 1012.8
20260510081526 58 142 0.0 0.0 0.00 0.00 0.00 86 1012.7
20260510080048 58 142 0.0 0.0 0.00 0.00 0.00 86 1012.6
20260510074514 58 142 0.0 0.0 0.00 0.00 0.00 86 1012.6
20260510073048 58 142 0.0 0.0 0.00 0.00 0.00 85 1012.6
20260510071507 59 142 0.0 0.0 0.00 0.00 0.00 84 1012.6
20260510070028 59 142 0.0 1.0 0.00 0.00 0.00 83 1012.5
20260510064602 59 142 0.0 0.0 0.00 0.00 0.00 83 1012.6
20260510063005 59 142 0.0 0.0 0.00 0.00 0.00 82 1012.3
20260510061522 59 142 0.0 1.0 0.00 0.00 0.00 82 1012.2
20260510060006 59 142 0.0 1.0 0.00 0.00 0.00 81 1012.1
20260510054553 59 144 0.0 0.0 0.00 0.00 0.00 82 1012.2
20260510003026 73 309 0.0 0.0 0.00 0.00 0.00 51 1010.2
20260510001538 75 309 0.0 0.0 0.00 0.00 0.00 49 1010.1
20260510000046 77 309 0.0 0.0 0.00 0.00 0.00 47 1010.0
20260509234536 79 309 0.0 0.0 0.00 0.00 0.00 44 1009.8
20260509233050 80 303 0.0 2.0 0.00 0.00 0.00 41 1009.6
20260509231525 82 231 0.0 3.0 0.00 0.00 0.00 41 1009.7
20260509230042 82 312 0.0 2.0 0.00 0.00 0.00 37 1009.6
20260509224555 82 320 0.0 5.0 0.00 0.00 0.00 35 1009.4
20260509223008 83 314 0.0 4.0 0.00 0.00 0.00 38 1009.4
20260509221557 83 307 0.0 4.0 0.00 0.00 0.00 42 1009.5
20260509220032 83 268 0.0 2.0 0.00 0.00 0.00 40 1009.6
20260509214550 83 274 0.0 4.0 0.00 0.00 0.00 33 1009.5
20260509213016 84 292 1.0 4.0 0.00 0.00 0.00 36 1009.6
20260509211532 83 234 0.0 3.0 0.00 0.00 0.00 40 1009.6
20260509210100 82 259 2.0 5.0 0.00 0.00 0.00 34 1009.6
20260509204536 82 323 1.0 6.0 0.00 0.00 0.00 34 1009.6
20260509203044 81 227 3.0 8.0 0.00 0.00 0.00 37 1009.8
20260509201518 82 219 1.0 6.0 0.00 0.00 0.00 38 1009.8
20260509200044 83 157 1.0 4.0 0.00 0.00 0.00 34 1009.9
20260509194601 83 348 0.0 6.0 0.00 0.00 0.00 39 1010.1
20260509194504 83 114 0.0 6.0 0.00 0.00 0.00 40 1010.1
20260509193022 83 90 1.0 6.0 0.00 0.00 0.00 46 1010.0
20260509191607 82 253 0.0 3.0 0.00 0.00 0.00 47 1010.0
20260509190003 81 24 0.0 9.0 0.00 0.00 0.00 42 1010.1
20260509184527 81 83 1.0 3.0 0.00 0.00 0.00 47 1010.2
20260509183050 79 54 3.0 7.0 0.00 0.00 0.00 50 1010.4
20260509181516 80 187 3.0 8.0 0.00 0.00 0.00 45 1010.5
20260509180028 79 280 1.0 9.0 0.00 0.00 0.00 50 1010.5
20260509174507 79 246 1.0 7.0 0.00 0.00 0.00 48 1010.7
20260509173040 78 217 1.0 8.0 0.00 0.00 0.00 47 1010.7
20260509171525 78 331 1.0 7.0 0.00 0.00 0.00 50 1010.6
20260509170029 77 303 1.0 8.0 0.00 0.00 0.00 54 1010.6